Regional Weather Roundup
Issued by NWS

Home | Current Version | Previous Version | Text Only | Print | Product List | Glossary On
Versions: 1 2 3 4 5 6 7 8 9 10 11 12 13 14 15 16 17 18 19 20 21 22 23 24 25 26 27 28 29 30 31 32 33 34 35 36 37 38 39 40 41 42 43 44 45 46 47 48 49 50
000
ASHW40 PHFO 291512
RWRHI

WEATHER ROUNDUP FOR HAWAII
NATIONAL WEATHER SERVICE HONOLULU HI
500 AM HST SUN MAY 29 2016

THIS IS AN AUTOMATED REPORT THAT HAS NOT BEEN QUALITY CONTROLLED.

NOTE..."FAIR" INDICATES FEW OR NO CLOUDS BELOW 12,000 FEET WITH NO
SIGNIFICANT WEATHER AND/OR OBSTRUCTIONS TO VISIBILITY.

* - THESE SITES REPORT LIMITED FIELDS

HIZ001>004-291600-
KAUAI-NIIHAU-

CITY           SKY/WX    TMP DP  RH WIND       PRES   REMARKS
LIHUE APT      CLEAR     68  65  90 W8        29.99S
PORT ALLEN*      N/A     68 N/A N/A N8          N/A
POIPU*           N/A     66 N/A N/A N3          N/A
PRINCEVILLE*     N/A     66 N/A N/A S3          N/A
KOKOLE POINT*  NOT AVBL
MOLOAA DAIRY*    N/A     68  66  94 W1          N/A
WAIMEA HTS*    NOT AVBL
PUU OPAE*      NOT AVBL
PUU LUA*       NOT AVBL
MAKAHA RIDGE*  NOT AVBL
$$

HIZ005>011-291600-
OAHU-

CITY           SKY/WX    TMP DP  RH WIND       PRES   REMARKS
HONOLULU       PTCLDY    70  67  90 N5        29.97S
KALAELOA       CLEAR     68  65  90 NE3       29.99R
KANEOHE MCB    MOCLDY    72  69  90 CALM      29.95S
WHEELER FIELD  FAIR      65  64  96 NW3       29.98R
BELLOWS*       NOT AVBL
KAHUKU*        NOT AVBL
WHEELER*       NOT AVBL
WAIANAE HARBOR NOT AVBL
DILLINGHAM*      N/A     64  61  88 MISG        N/A
KAHUKU TRN*      N/A     68  64  88 CALM        N/A
KAWAILOA*        N/A     70  63  78 E2          N/A
KII*             N/A     70  66  88 CALM        N/A
MAKUA RANGE*     N/A     68  63  83 E7          N/A
OAHU FOREST NW NOT AVBL
SCHOFIELD BRK*   N/A     64  63  94 MISG        N/A
SCHOFIELD S*   NOT AVBL
WAIANAE VLY*   NOT AVBL
KUAOKALA*      NOT AVBL
HONOULIUULI*   NOT AVBL
MOKUOLOE IS*   NOT AVBL
PALEHUA*       NOT AVBL
WAIAWA PHB*    NOT AVBL
$$

HIZ012>013-291600-
MOLOKAI-

CITY           SKY/WX    TMP DP  RH WIND       PRES   REMARKS
MOLOKAI AIRPT    N/A     67  64  90 CALM      29.99S
KALAUPAPA      NOT AVBL
MAKAPULAPAI*   NOT AVBL
MOLOKAI 1*     NOT AVBL
PUU ALII*      NOT AVBL
$$

HIZ016-291600-
KAHOOLAWE-

CITY           SKY/WX    TMP DP  RH WIND       PRES   REMARKS
KAHOOLAWE*     NOT AVBL
HAKIOAWA*      NOT AVBL
HONOKANAIA*      N/A     72  67  86 NE5       29.92F
KANELOA*         N/A     72  66  83 NE7       30.04F
KEALIALALO*    NOT AVBL
LUA MAKIKA*    NOT AVBL
$$

HIZ014>015-291600-
LANAI-

CITY           SKY/WX    TMP DP  RH WIND       PRES   REMARKS
LANAI CITY     FAIR      66  65  96 CALM      30.04S
LANAI 1*       NOT AVBL
$$

HIZ017>028-291600-
MAUI-

CITY           SKY/WX    TMP DP  RH WIND       PRES   REMARKS
KAHULUI        CLEAR     67  63  87 SE7       29.98S
KAPALUA-W MAUI NOT AVBL
HANA AIRPORT   NOT AVBL
HANA*            N/A     70 N/A N/A S3          N/A
HALEAKALA SUMM   N/A     41  19  42 N5          N/A
MAALAEA BAY*   NOT AVBL
HALEAKALA*     NOT AVBL
KAUPO GAP*     NOT AVBL
KULA 1*          N/A    N/A N/A N/A E5          N/A
$$

HIZ023>026-291600-
BIG ISLAND OF HAWAII COAST AND LOWER SLOPES-

CITY           SKY/WX    TMP DP  RH WIND       PRES   REMARKS
KAILUA KONA    CLOUDY    75  67  76 SE8       29.96S
HILO           PTCLDY    68  61  78 SW6       29.99R
HONOKAA*         N/A     63 N/A N/A VRB1        N/A
KAWAIHAE MWT*    N/A     73 N/A N/A NE6         N/A
KAWAIHAE*      NOT AVBL
SOUTH POINT*     N/A     70 N/A N/A NW7         N/A
UPOLU AIRPORT*   N/A    N/A N/A N/A SE8         N/A
KAMUELA*       NOT AVBL
HAKALAU*         N/A     43  39  87 W5          N/A
KALOKO-HONOKO* NOT AVBL
PALI 2*          N/A     63  57  82 SW3         N/A
KEALAKOMO*       N/A     72  66  83 SW1G7       N/A
KAUPULEHU*     NOT AVBL
KAPAPALA*        N/A     61  60  96 N3          N/A
LOWER KAHUKU*  NOT AVBL
PUHE CS*       NOT AVBL
PUHO CS*       NOT AVBL
PTA KEAMUKU*     N/A     61  54  77 CALM        N/A
WAIKOLOA*      NOT AVBL
$$

HIZ027>028-291600-
BIG ISLAND OF HAWAII INTERIOR AND SUMMMITS-

CITY           SKY/WX    TMP DP  RH WIND       PRES   REMARKS
BRADSHAW FIELD CLOUDY    54  50  88 W1        30.28S
MK VISITOR CEN   N/A     45  39  81 NW7         N/A
MAUNA KEA*       N/A     39 -17   9 VRB24       N/A  WCI  28
MAUNA LOA*     NOT AVBL
MAUNA LOA 1*   NOT AVBL
PTA KIPUKA*      N/A     55  55 100 S1          N/A
PTA RANGE 17*    N/A     55  52  88 CALM        N/A
PTA WEST*        N/A     59  57  94 S3          N/A
NENE CABIN*    NOT AVBL
AHUMOA*        NOT AVBL
PTA PORTABLE*  NOT AVBL
PUU MALI*        N/A     52  36  54 SW8         N/A
$$

HIC003-291600-
NORTHWEST ISLANDS-

CITY           SKY/WX    TMP DP  RH WIND       PRES   REMARKS
MIDWAY ISLAND  MOCLDY    68  64  88 E8        30.14F
MIDWAY NOS*    NOT AVBL
FRENCH FRIGATE NOT AVBL
$$

PHZ110>124-180-291600-
BUOY REPORTS

STATION/POSITION TIME  TEMP    WIND        PRES    WAVE   SWELL
                       AIR SEA DIR/SP/G            HT/PER HT/DIR
                 (UTC) (F)     (DEG/KT/KT) (MB)    (FT/S) (FT/D)
BUOY 51001       1400   78 80   70/ 12/ 14 1015.9F
BUOY 51101       1450   76 79   40/ 12/ 14 1016.2R   4/12   3/260
BUOY 51100       NOT AVBL
BUOY 51002       1450   77 79   90/  8/ 10 1014.4    6/ 8   5/110
BUOY 51003       1450   78 80  240/  2/  2 1014.7R   4/15   3/160
BUOY 51004       1450   76 79   80/  8/ 10 1014.8R   6/ 8   5/ 90
BARBERS PT BUOY  NOT AVBL
WAIMEA BAY BUOY  1404      79                N/A     2/13
KAILUA BAY BUOY  1411      78                N/A     3/ 8   2/140
LANAI BUOY       1415      80                N/A     3/14   2/190
BARBERS PT 2     1503      79                N/A     3/14   2/170
PAUWELA MAUI     1439      79                N/A     4/ 8   2/ 90
HILO             1412      79                N/A     5/ 8   2/130
KANEOHE BAY BUOY 1406      78                N/A     2/ 8
HANALEI KAUAI    NOT AVBL
KAHULUI HARBOR   1400   72 80  140/  2/  2 1014.9S
HONOLULU HARBOR  1400   73 79  100/  1/  2 1015.5F
KILO NALU        NOT AVBL
HILO HARBOR      1400   69 78  200/  6/  7 1014.9S
MOKUOLOE         1400   73 82   CALM  /  2 1014.8F
NAWILIWILI       1400   69 81  270/  4/  6 1015.2S
WHOTS BUOY       NOT AVBL
BUOY 51028       NOT AVBL
$$

......................KEY........................................
  SKY/WX - SKY CONDITIONS/PRESENT WEATHER
  TMP    - TEMPERATURE IN FAHRENHEIT
  DWPT   - DEWPOINT IN FAHRENHEIT
  RH     - RELATIVE HUMIDITY IN PERCENT
  WIND   - DIRECTION AND SPEED /MPH FOR ISLANDS...KTS FOR BUOYS/
  PRES   - MEAN SEA LEVEL PRESSURE IN INCHES OF HG
  VSB    - VISIBILITY IN MILES
  HX     - HEAT INDEX
  WCI    - WIND CHILL INDEX
  VRB    - VARIABLE WIND DIRECTION
  N/A    - NOT AVAILABLE




USA.gov is the U.S. government's official web portal to all federal, state and local government web resources and services.